Flag for Tunisia Weather past 2 weeks in Tunis, Tunisia

Now
79 °F

Clear.


Feels Like: 81 °F
Forecast: 73 / 109 °F
Wind: 6 mph from West

Location: Tunis-Carthage

Current Time: Jul 29, 2015 at 2:26:03 AM

Latest Report: Jul 29, 2015 at 2:00 AM


Visibility: 10 mi

Pressure: 29.89 "Hg

Humidity: 61%

Dew point: 64 °F

Location of TunisLocation

Historic Weather in Tunis — Graph

°F

Tunis temperature yesterday

Maximum temperature yesterday: 97 °F (at 1:00 PM)
Minimum temperature yesterday: 77 °F (at 2:30 AM)
Average temperature yesterday: 86 °F

Past Weeks' High & Low Weather Summary

 TemperatureHumidityPressure
High102 °F (Jul 19, 12:30 PM)94% (Jul 22, 3:30 AM)30.04 "Hg (Jul 22, 3:30 AM)
Low70 °F (Jul 21, 5:30 AM)16% (Jul 19, 12:30 PM)29.80 "Hg (Jul 24, 3:30 PM)
Average84 °F57%29.95 "Hg
* Reported Jul 14 1:00 AM — Jul 29 1:00 AM, Tunis, Weather by CustomWeather, © 2015

Note: Actual official high and low records may vary slightly from our data, if they occured in-between our weather recording intervals... More about our weather records

Advertising

Tunis weather history for previous 24 hours

 ConditionsComfort  
Time TempWeatherWind HumidityBarometerVisibility
1:00 AM
Wed, Jul 29
79 °FClear.6 mph61%29.92 "Hg10 mi
12:30 AM81 °FPassing clouds.5 mph58%29.92 "HgN/A
12:00 AM81 °FPassing clouds.6 mph62%29.92 "HgN/A
11:30 PM
Tue, Jul 28
81 °FClear.6 mph62%29.92 "Hg10 mi
10:30 PM81 °FClear.5 mph58%29.92 "Hg10 mi
9:30 PM81 °FClear.9 mph58%29.89 "Hg10 mi
9:00 PM82 °FClear.8 mph55%29.89 "Hg10 mi
8:30 PM84 °FClear.3 mph51%29.89 "Hg10 mi
8:00 PM84 °FClear.8 mph51%29.86 "Hg10 mi
7:30 PM86 °FClear.13 mph49%29.86 "Hg10 mi
7:00 PM88 °FSunny.14 mph46%29.86 "Hg10 mi
6:30 PM90 °FSunny.16 mph41%29.86 "Hg10 mi
6:00 PM91 °FSunny.14 mph41%29.86 "Hg10 mi
5:30 PM93 °FSunny.15 mph39%29.86 "Hg10 mi
5:00 PM95 °FSunny.14 mph36%29.86 "Hg10 mi
4:30 PM95 °FSunny.16 mph34%29.86 "Hg10 mi
4:00 PM97 °FSunny.15 mph32%29.86 "Hg10 mi
3:30 PM95 °FSunny.15 mph36%29.86 "Hg10 mi
3:00 PM97 °FPassing clouds.15 mph34%29.86 "HgN/A
2:30 PM97 °FSunny.13 mph37%29.89 "Hg10 mi
1:30 PM97 °FSunny.12 mph37%29.89 "Hg10 mi
1:00 PM97 °FSunny.9 mph34%29.89 "Hg10 mi
12:30 PM95 °FSunny.10 mph41%29.89 "Hg10 mi
12:00 PM95 °FSunny.9 mph34%29.92 "Hg10 mi
11:30 AM93 °FSunny.9 mph39%29.92 "Hg10 mi
11:00 AM93 °FSunny.9 mph44%29.92 "Hg10 mi
10:30 AM91 °FSunny.10 mph46%29.92 "Hg10 mi
10:00 AM90 °FSunny.10 mph49%29.92 "Hg10 mi
9:30 AM88 °FSunny.9 mph55%29.92 "Hg10 mi
9:00 AM86 °FSunny.8 mph59%29.92 "Hg10 mi
8:30 AM84 °FSunny.8 mph58%29.92 "Hg10 mi
8:00 AM82 °FPassing clouds.9 mph66%29.89 "HgN/A
7:30 AM82 °FPassing clouds.10 mph66%29.89 "HgN/A
7:00 AM81 °FPassing clouds.7 mph66%29.89 "HgN/A
6:30 AM79 °FPassing clouds.5 mph70%29.89 "HgN/A
6:00 AM79 °FPassing clouds.8 mph70%29.89 "HgN/A
5:30 AM77 °FPassing clouds.5 mph69%29.89 "HgN/A
5:00 AM77 °FPassing clouds.2 mph69%29.89 "HgN/A
4:30 AM77 °FPassing clouds.6 mph74%29.89 "HgN/A
4:00 AM77 °FPassing clouds.6 mph74%29.89 "HgN/A
3:30 AM79 °FPassing clouds.5 mph65%29.89 "HgN/A
3:00 AM77 °FPassing clouds.No wind69%29.89 "HgN/A
2:30 AM77 °FPassing clouds.No wind69%29.89 "HgN/A
2:00 AM79 °FPassing clouds.3 mph65%29.89 "HgN/A
Weather by CustomWeather, © 2015

See weather overviewHow to use our weather pages